Stevens Point, WI

1:33 AM CST on December 10, 2019 (GMT -0600)
Stevens Point Municipal

Weather History for KSTE - August, 2019

Change the Weather History Date:

Saturday, August 24, 2019

  Actual Average Record
Temperature  
Mean Temperature 56 °F -  
Max Temperature 73 °F 76 °F 102 °F (1948)
Min Temperature 40 °F 55 °F 40 °F (1987)
Degree Days  
Heating Degree Days 9    
Growing Degree Days 6 (Base 50)    
Moisture  
Dew Point 50 °F    
Average Humidity 77    
Maximum Humidity 100    
Minimum Humidity 47    
Precipitation  
Precipitation 0.00 in - - ()
Sea Level Pressure  
Sea Level Pressure 30.29 in    
Wind  
Wind Speed 3 mph (ESE)    
Max Wind Speed 12 mph    
Max Gust Speed -    
Visibility 10 miles    
Events      
Averages and records for this station are not official NWS values.
T = Trace of Precipitation, MM = Missing Value Source: NWS Daily Summary

Daily Weather History Graph

Daily Weather History Graph

Search for Another Location

Airport or City:

Astronomy

Aug. 24, 2019 Rise Set
Actual Time 6:11 AM CDT 7:49 PM CDT
Civil Twilight 5:40 AM CDT 8:19 PM CDT
Nautical Twilight 5:03 AM CDT 8:56 PM CDT
Astronomical Twilight 4:22 AM CDT 9:36 PM CDT
Moon No Moon Rise 3:11 PM CDT (8/24)
Length of Visible Light 14h 39m
Length of Day
13h 37m
Last Quarter, 39% of the Moon is Illuminated
Aug 24
Last Quarter
Aug 30
New
Sep 5
First Quarter
Sep 13
Full
Sep 21
Last Quarter

Hourly Weather History & Observations

Time (CDT) Temp. Windchill Dew Point Humidity Pressure Visibility Wind Dir Wind Speed Gust Speed Precip Events Conditions
12:15 AM 46.8 °F - 46.8 °F 100% 30.30 in 10.0 mi Calm Calm - N/A   Clear
12:35 AM 46.8 °F - 46.8 °F 100% 30.30 in 10.0 mi Calm Calm - N/A   Clear
12:55 AM 45.5 °F - 45.5 °F 100% 30.30 in 10.0 mi Calm Calm - N/A   Clear
1:15 AM 46.4 °F - 46.4 °F 100% 30.30 in 10.0 mi Calm Calm - N/A   Clear
1:35 AM 44.8 °F - 44.8 °F 100% 30.31 in 10.0 mi Calm Calm - N/A   Scattered Clouds
1:55 AM 45.0 °F - 45.0 °F 100% 30.32 in 10.0 mi Calm Calm - N/A   Mostly Cloudy
2:15 AM 45.0 °F - 45.0 °F 100% 30.32 in 10.0 mi Calm Calm - N/A   Scattered Clouds
2:35 AM 43.0 °F 41.3 °F 43.0 °F 100% 30.31 in 10.0 mi NE 3.5 mph - N/A   Clear
2:55 AM 43.9 °F - 43.9 °F 100% 30.32 in 10.0 mi Calm Calm - N/A   Clear
3:15 AM 45.3 °F - 45.1 °F 99% 30.32 in 10.0 mi Calm Calm - N/A   Clear
3:35 AM 46.6 °F - 46.4 °F 99% 30.32 in 10.0 mi Calm Calm - N/A   Clear
3:55 AM 44.6 °F - 44.6 °F 100% 30.33 in 10.0 mi Calm Calm - N/A   Clear
4:15 AM 42.1 °F - 42.1 °F 100% 30.33 in 10.0 mi Calm Calm - N/A   Clear
4:35 AM 44.6 °F - 44.6 °F 100% 30.33 in 10.0 mi Calm Calm - N/A   Clear
4:55 AM 42.1 °F - 42.1 °F 100% 30.33 in 10.0 mi Calm Calm - N/A   Clear
5:15 AM 44.2 °F - 43.9 °F 99% 30.34 in 10.0 mi Calm Calm - N/A   Clear
5:35 AM 42.4 °F - 42.4 °F 100% 30.35 in 10.0 mi Calm Calm - N/A   Clear
5:55 AM 40.8 °F - 40.8 °F 100% 30.34 in 10.0 mi Calm Calm - N/A   Clear
6:15 AM 41.4 °F - 41.4 °F 100% 30.35 in 10.0 mi Calm Calm - N/A   Clear
6:35 AM 44.1 °F - 44.1 °F 100% 30.35 in 10.0 mi Calm Calm - N/A   Clear
6:55 AM 43.3 °F - 43.3 °F 100% 30.35 in 10.0 mi Calm Calm - N/A   Clear
7:15 AM 46.4 °F - 46.4 °F 100% 30.35 in 10.0 mi Calm Calm - N/A   Clear
7:35 AM 50.2 °F - 50.2 °F 100% 30.35 in 10.0 mi ENE 3.5 mph - N/A   Clear
7:55 AM 52.9 °F - 51.4 °F 95% 30.35 in 10.0 mi ENE 3.5 mph - N/A   Clear
8:15 AM 55.6 °F - 52.0 °F 88% 30.35 in 10.0 mi East 6.9 mph - N/A   Clear
8:35 AM 57.7 °F - 52.0 °F 81% 30.35 in 10.0 mi ENE 5.8 mph - N/A   Clear
8:55 AM 59.5 °F - 51.3 °F 74% 30.35 in 10.0 mi East 4.6 mph - N/A   Clear
9:15 AM 61.0 °F - 51.4 °F 71% 30.35 in 10.0 mi East 8.1 mph - N/A   Clear
9:35 AM 62.4 °F - 52.3 °F 70% 30.34 in 10.0 mi East 6.9 mph - N/A   Clear
9:55 AM 63.3 °F - 51.6 °F 66% 30.34 in 10.0 mi East 6.9 mph - N/A   Clear
10:15 AM 64.6 °F - 51.3 °F 62% 30.34 in 10.0 mi East 6.9 mph - N/A   Scattered Clouds
10:35 AM 65.8 °F - 51.1 °F 59% 30.33 in 10.0 mi East 11.5 mph - N/A   Clear
10:55 AM 66.0 °F - 49.3 °F 55% 30.33 in 10.0 mi ESE 5.8 mph - N/A   Clear
11:15 AM 66.9 °F - 50.0 °F 54% 30.32 in 10.0 mi SE 8.1 mph - N/A   Clear
11:35 AM 67.5 °F - 50.2 °F 54% 30.31 in 10.0 mi East 11.5 mph - N/A   Scattered Clouds
11:55 AM 68.0 °F - 49.8 °F 52% 30.30 in 10.0 mi SE 10.4 mph - N/A   Mostly Cloudy
12:15 PM 67.5 °F - 50.2 °F 54% 30.30 in 10.0 mi SE 8.1 mph - N/A   Mostly Cloudy
12:35 PM 68.4 °F - 50.4 °F 53% 30.30 in 10.0 mi ESE 8.1 mph - N/A   Mostly Cloudy
12:55 PM 68.9 °F - 51.1 °F 53% 30.29 in 10.0 mi East 10.4 mph - N/A   Mostly Cloudy
1:15 PM 70.0 °F - 50.4 °F 50% 30.29 in 10.0 mi SSE 8.1 mph - N/A   Mostly Cloudy
1:35 PM 68.9 °F - 50.5 °F 52% 30.29 in 10.0 mi ESE 6.9 mph - N/A   Mostly Cloudy
1:55 PM 70.5 °F - 50.7 °F 49% 30.28 in 10.0 mi SSE 8.1 mph - N/A   Mostly Cloudy
2:15 PM 70.0 °F - 51.3 °F 51% 30.28 in 10.0 mi SE 5.8 mph - N/A   Overcast
2:35 PM 72.9 °F - 51.8 °F 47% 30.27 in 10.0 mi East 10.4 mph - N/A   Mostly Cloudy
2:55 PM 70.9 °F - 51.4 °F 50% 30.26 in 10.0 mi East 9.2 mph - N/A   Mostly Cloudy
3:15 PM 70.2 °F - 51.1 °F 51% 30.26 in 10.0 mi ESE 5.8 mph - N/A   Overcast
3:35 PM 70.5 °F - 51.8 °F 51% 30.25 in 10.0 mi SSE 4.6 mph - N/A   Overcast
3:55 PM 71.4 °F - 52.2 °F 51% 30.25 in 10.0 mi SSE 3.5 mph - N/A   Overcast
4:15 PM 70.5 °F - 51.8 °F 51% 30.23 in 10.0 mi East 8.1 mph - N/A   Overcast
4:35 PM 70.2 °F - 52.9 °F 54% 30.23 in 10.0 mi ESE 9.2 mph - N/A   Overcast
4:55 PM 71.4 °F - 53.2 °F 53% 30.23 in 10.0 mi East 8.1 mph - N/A   Scattered Clouds
5:15 PM 70.5 °F - 53.4 °F 55% 30.23 in 10.0 mi SE 9.2 mph - N/A   Mostly Cloudy
5:35 PM 69.4 °F - 53.6 °F 57% 30.23 in 10.0 mi South 9.2 mph - N/A   Scattered Clouds
5:55 PM 69.4 °F - 54.3 °F 59% 30.23 in 10.0 mi SSE 4.6 mph - N/A   Clear
6:15 PM 68.4 °F - 53.6 °F 59% 30.23 in 10.0 mi SSE 6.9 mph - N/A   Scattered Clouds
6:35 PM 68.7 °F - 54.0 °F 59% 30.23 in 10.0 mi SSE 5.8 mph - N/A   Mostly Cloudy
6:55 PM 68.0 °F - 54.7 °F 62% 30.23 in 10.0 mi SE 6.9 mph - N/A   Mostly Cloudy
7:15 PM 66.6 °F - 55.0 °F 66% 30.23 in 10.0 mi ESE 3.5 mph - N/A   Scattered Clouds
7:35 PM 64.4 °F - 54.5 °F 70% 30.23 in 10.0 mi ESE 4.6 mph - N/A   Clear
7:55 PM 63.0 °F - 54.5 °F 74% 30.23 in 10.0 mi ESE 3.5 mph - N/A   Clear
8:15 PM 61.3 °F - 55.4 °F 81% 30.23 in 10.0 mi ESE 3.5 mph - N/A   Clear
8:35 PM 59.5 °F - 53.6 °F 81% 30.23 in 10.0 mi East 3.5 mph - N/A   Clear
9:15 PM 57.4 °F - 54.9 °F 91% 30.23 in 10.0 mi ESE 3.5 mph - N/A   Clear
9:35 PM 57.6 °F - 52.7 °F 84% 30.24 in 10.0 mi SE 3.5 mph - N/A   Clear
9:55 PM 57.9 °F - 52.3 °F 82% 30.23 in 10.0 mi ESE 3.5 mph - N/A   Clear
10:15 PM 57.6 °F - 52.5 °F 83% 30.23 in 10.0 mi SE 3.5 mph - N/A   Clear
10:35 PM 57.2 °F - 52.2 °F 83% 30.23 in 10.0 mi ESE 3.5 mph - N/A   Clear
10:55 PM 56.3 °F - 52.0 °F 85% 30.23 in 10.0 mi ESE 3.5 mph - N/A   Clear
11:15 PM 55.4 °F - 51.6 °F 87% 30.23 in 10.0 mi Calm Calm - N/A   Clear
11:35 PM 53.2 °F - 52.0 °F 95% 30.23 in 10.0 mi ESE 4.6 mph - N/A   Clear
11:55 PM 53.6 °F - 51.3 °F 92% 30.22 in 10.0 mi ESE 3.5 mph - N/A   Clear